Altoona, PA

8:53 PM EDT on August 19, 2019 (GMT -0400)
Altoona-Blair County

Weather History for KAOO - May, 2019

Change the Weather History Date:

Saturday, May 25, 2019

  Actual Average Record
Temperature  
Mean Temperature 70 °F 61 °F  
Max Temperature 80 °F 71 °F 87 °F (2018)
Min Temperature 60 °F 50 °F 35 °F (1956)
Degree Days  
Heating Degree Days 0 6  
Month to date heating degree days 116 212  
Since 1 July heating degree days 5670 6130  
Cooling Degree Days 5 1  
Month to date cooling degree days 35 15  
Year to date cooling degree days 35 21  
Growing Degree Days 20 (Base 50)    
Moisture  
Dew Point 60 °F    
Average Humidity 71    
Maximum Humidity 90    
Minimum Humidity 52    
Precipitation  
Precipitation 0.11 in 0.12 in 2.37 in (1997)
Month to date precipitation 4.42 2.99  
Year to date precipitation 17.23 13.46  
Sea Level Pressure  
Sea Level Pressure 30.09 in    
Wind  
Wind Speed 7 mph (South)    
Max Wind Speed 17 mph    
Max Gust Speed 23 mph    
Visibility 9 miles    
Events Rain , Thunderstorm    
T = Trace of Precipitation, MM = Missing Value Source: NWS Daily Summary

Daily Weather History Graph

Daily Weather History Graph

Search for Another Location

Airport or City:

Astronomy

May. 25, 2019 Rise Set
Actual Time 5:49 AM EDT 8:31 PM EDT
Civil Twilight 5:17 AM EDT 9:03 PM EDT
Nautical Twilight 4:38 AM EDT 9:43 PM EDT
Astronomical Twilight 3:53 AM EDT 10:28 PM EDT
Moon 1:31 AM EDT (5/25) 11:47 AM EDT (5/25)
Length of Visible Light 15h 45m
Length of Day
14h 41m
Waning Gibbous, 60% of the Moon is Illuminated
May 25
Waning Gibbous
May 26
Last Quarter
Jun 3
New
Jun 10
First Quarter
Jun 17
Full

Hourly Weather History & Observations

Time (EDT) Temp. Heat Index Dew Point Humidity Pressure Visibility Wind Dir Wind Speed Gust Speed Precip Events Conditions
12:53 AM 62.1 °F - 53.1 °F 72% 30.14 in 10.0 mi Calm Calm - N/A   Overcast
1:53 AM 60.1 °F - 54.0 °F 80% 30.13 in 10.0 mi Calm Calm - N/A   Mostly Cloudy
2:53 AM 62.1 °F - 54.0 °F 75% 30.13 in 10.0 mi Calm Calm - N/A   Overcast
3:53 AM 62.1 °F - 53.1 °F 72% 30.13 in 10.0 mi Calm Calm - N/A   Overcast
4:53 AM 61.0 °F - 55.9 °F 83% 30.14 in 10.0 mi SE 3.5 mph - N/A   Overcast
5:53 AM 61.0 °F - 57.0 °F 87% 30.15 in 10.0 mi Calm Calm - N/A   Overcast
6:53 AM 61.0 °F - 55.0 °F 81% 30.15 in 10.0 mi Calm Calm - N/A   Clear
7:53 AM 64.0 °F - 52.0 °F 65% 30.16 in 10.0 mi SSE 5.8 mph - N/A   Clear
8:53 AM 66.0 °F - 53.1 °F 63% 30.16 in 10.0 mi SSE 12.7 mph - N/A   Partly Cloudy
9:53 AM 69.1 °F - 54.0 °F 58% 30.16 in 10.0 mi South 9.2 mph - N/A   Mostly Cloudy
10:53 AM 71.1 °F - 54.0 °F 55% 30.15 in 10.0 mi South 11.5 mph - N/A   Partly Cloudy
11:53 AM 73.0 °F - 55.9 °F 55% 30.14 in 10.0 mi Variable 4.6 mph 16.1 mph N/A   Clear
12:53 PM 78.1 °F - 59.0 °F 52% 30.09 in 10.0 mi South 10.4 mph - N/A   Clear
1:53 PM 79.0 °F - 61.0 °F 54% 30.06 in 10.0 mi South 11.5 mph 23.0 mph N/A   Partly Cloudy
2:53 PM 80.1 °F 81.5 °F 63.0 °F 56% 30.04 in 10.0 mi South 10.4 mph - N/A   Scattered Clouds
3:53 PM 77.0 °F - 62.1 °F 60% 30.04 in 10.0 mi SSE 12.7 mph - N/A   Mostly Cloudy
4:12 PM 73.9 °F - 64.9 °F 73% 30.08 in 3.0 mi South 11.5 mph - 0.02 in Rain , Thunderstorm Rain
4:20 PM 72.0 °F - 64.9 °F 78% 30.08 in 2.5 mi South 10.4 mph - 0.05 in Rain , Thunderstorm Rain
4:27 PM 71.1 °F - 64.9 °F 81% 30.09 in 2.0 mi SSW 9.2 mph - 0.09 in Rain Rain
4:38 PM 72.0 °F - 66.0 °F 81% 30.08 in 7.0 mi South 11.5 mph - 0.10 in Rain Light Rain
4:53 PM 72.0 °F - 66.9 °F 84% 30.05 in 10.0 mi South 10.4 mph - 0.10 in Rain Light Rain
5:53 PM 73.0 °F - 66.0 °F 79% 30.03 in 10.0 mi South 9.2 mph - 0.00 in   Mostly Cloudy
6:53 PM 72.0 °F - 64.9 °F 78% 30.02 in 10.0 mi South 8.1 mph - N/A   Mostly Cloudy
7:53 PM 72.0 °F - 64.9 °F 78% 30.01 in 10.0 mi SSW 6.9 mph - N/A   Clear
8:53 PM 70.0 °F - 64.9 °F 84% 30.01 in 10.0 mi SSW 8.1 mph - N/A   Clear
9:53 PM 71.1 °F - 66.0 °F 84% 30.05 in 10.0 mi WNW 8.1 mph 20.7 mph 0.01 in Rain Light Rain
10:53 PM 69.1 °F - 64.0 °F 84% 30.04 in 10.0 mi South 8.1 mph - 0.00 in   Overcast
11:53 PM 68.0 °F - 63.0 °F 84% 30.02 in 10.0 mi SSE 5.8 mph - N/A   Scattered Clouds